Regional Weather Roundup
Issued by NWS

Home | Current Version | Previous Version | Text Only | Print | Product List | Glossary Off
Versions: 1 2 3 4 5 6 7 8 9 10 11 12 13 14 15 16 17 18 19 20 21 22 23 24 25 26 27 28 29 30 31 32 33 34 35 36 37 38 39 40 41 42 43 44 45 46 47 48 49 50

000
ASUS43 KBIS 201610
RWRND

NORTH DAKOTA REGIONAL WEATHER ROUNDUP
NATIONAL WEATHER SERVICE BISMARCK ND
1100 AM CDT SAT SEP 20 2014

NOTE: "FAIR" INDICATES FEW OR NO CLOUDS BELOW 12,000 FEET WITH NO
SIGNIFICANT WEATHER AND/OR OBSTRUCTIONS TO VISIBILITY.


NDZ001>003-009>011-017-201700-
NORTHWEST NORTH DAKOTA

CITY           SKY/WX    TMP DP  RH WIND       PRES   REMARKS
WILLISTON      SUNNY     65  47  52 NW25      30.00R
MINOT          PTSUNNY   58  51  78 W20G26    29.87R
MINOT AFB      PTSUNNY   59  55  87 NW21G29   29.87R
$$

NDZ018>021-031>035-040>046-201700-
SOUTHWEST NORTH DAKOTA

CITY           SKY/WX    TMP DP  RH WIND       PRES   REMARKS
BISMARCK       SUNNY     69  53  56 NW13      29.88R
DICKINSON      SUNNY     63  48  58 NW17      30.00R
GARRISON         N/A     59  54  83 NW8       29.88F
HETTINGER ARPT SUNNY     66  45  46 NW29G37   30.02R
$$

NDZ004>008-012>016-024-026-027-054-201700-
NORTHEAST NORTH DAKOTA

CITY           SKY/WX    TMP DP  RH WIND       PRES   REMARKS
GRAND FORKS    PTSUNNY   63  55  75 S10       29.76F
GRND FRKS AFB  PTSUNNY   63  58  84 SW6       29.76F
DEVILS LAKE    CLOUDY    61  48  63 NW23G30   29.80R
$$

NDZ022-023-025-028>030-036>039-047>053-201700-
SOUTHEAST NORTH DAKOTA

CITY           SKY/WX    TMP DP  RH WIND       PRES   REMARKS
FARGO          SUNNY     65  55  70 S8        29.81F
JAMESTOWN      MOSUNNY   67  57  70 SW7       29.79F
$$




USA.gov is the U.S. government's official web portal to all federal, state and local government web resources and services.